Regional Weather Roundup
Issued by NWS Jackson, KY

Home | Current Version | Previous Version | Graphics & Text | Print | Product List | Glossary On
Versions: 1 2 3 4 5 6 7 8 9 10 11 12 13 14 15 16 17 18 19 20 21 22 23 24 25 26 27 28 29 30 31 32 33 34 35 36 37 38 39 40 41 42 43 44 45 46 47 48 49 50
000
ASUS43 KJKL 270605
RWRJKL

EAST KENTUCKY HOURLY WEATHER ROUNDUP
NATIONAL WEATHER SERVICE JACKSON KY
200 AM EDT WED AUG 27 2014

NOTE: "FAIR" INDICATES FEW OR NO CLOUDS BELOW 12,000 FEET WITH
NO SIGNIFICANT WEATHER AND/OR OBSTRUCTIONS TO VISIBILITY.

* THESE REPORTS ARE NOT UNDER NWS QUALITY CONTROL AND MAY NOT
  REPORT WEATHER SUCH AS PRECIPITATION AND FOG.

KYZ079-080-083-085-087-088-110-112-115-119-120-270700
...EASTERN KENTUCKY...

CITY           SKY/WX    TMP DP  RH WIND       PRES   REMARKS
JACKSON          N/A     67  61  81 S5        30.11F
6HR MIN TEMP:  67; 6HR MAX TEMP:  74;

LONDON           N/A     66  62  87 CALM      30.12F
6HR MIN TEMP:  66; 6HR MAX TEMP:  79;

SOMERSET*        N/A     64  64 100 CALM      30.11F
MONTICELLO*      N/A     64  63  97 CALM      30.12F
6HR MIN TEMP:  64; 6HR MAX TEMP:  79;

WILLIAMSBURG*  CLEAR     64  64 100 CALM      30.11F
MIDDLESBORO*     N/A     64  63  97 CALM      30.13F
6HR MIN TEMP:  64; 6HR MAX TEMP:  76;

HARLAN APT*    CLOUDY    64  64 100 MISG      30.14F VSB 1/2
BLACK MTN*       N/A     61  55  82 S1          N/A
PIKEVILLE APT* CLEAR     66  63  88 S5        30.12F
BIG SANDY*       N/A     64  63  94 CALM      30.11F
6HR MIN TEMP:  64; 6HR MAX TEMP:  74;

MOREHEAD APT*  MOCLDY    66  64  94 CALM      30.13S
$$

KYZ035-036-041-042-044-050-067-078-099-270700
...CENTRAL KENTUCKY...

CITY           SKY/WX    TMP DP  RH WIND       PRES   REMARKS
MT STERLING*     N/A     68  64  88 CALM      30.12F
FLEMING/MASON*   N/A     69  65  86 CALM      30.13S
DANVILLE*        N/A     66  64  94 CALM      30.11F
RICHMOND*        N/A     66  63  88 CALM      30.10F
LEXINGTON        N/A     73  65  75 CALM      30.11S
6HR MIN TEMP:  71; 6HR MAX TEMP:  82; 6HR PCP: TRACE;

FRANKFORT        N/A     71  68  90 CALM      30.10S
6HR MIN TEMP:  71; 6HR MAX TEMP:  83;

$$

KYZ091>093-OHZ055-061-077-WVZ005-015-034-035-042-270700
...SOUTHERN OHIO/WEST VIRGINIA...

CITY           SKY/WX    TMP DP  RH WIND       PRES   REMARKS
COVINGTON        N/A     73  69  87 CALM      30.10F
COLUMBUS         N/A     77  66  68 CALM      30.09S
DAYTON           N/A     71  68  90 CALM      30.11S
WILMINGTON       N/A     69  66  90 S3        30.11S
HUNTINGTON       N/A     65  64  97 CALM      30.10S
CHARLESTON       N/A     63  63 100 CALM      30.10F
PINEVILLE*       N/A     60  60 100 MISG      30.20F
BECKLEY          N/A     60  54  80 CALM      30.18F
BLUEFIELD        N/A     64  54  69 SE3       30.20F
$$

VAZ002-007-008-TNZ017-027-036-066-071-270700
...SOUTHWEST VIRGINIA/EAST TENNESSEE...

CITY           SKY/WX    TMP DP  RH WIND       PRES   REMARKS
WISE*            N/A     63  54  72 CALM      30.20F
JONESVILLE*      N/A     63  63 100 CALM      30.15F
ABINGDON*        N/A     62  56  81 E5        30.17S
BRISTOL          N/A     61  58  90 CALM      30.14F
KNOXVILLE        N/A     67  64  90 NE3       30.09S
OAK RIDGE        N/A     68  66  93 CALM      30.11F
CROSSVILLE       N/A     67  63  87 CALM      30.15F FOG
NASHVILLE        N/A     73  70  90 CALM      30.08F
$$

...KEY TO REMARKS...
VSB - VISIBILITY IN MILES
WCI - WIND CHILL INDEX
HX  - HEAT INDEX

$$


USA.gov is the U.S. government's official web portal to all federal, state and local government web resources and services.